Wind_Speed
52 53 55 57 59 60 61 62 62 61 62 62 63 65 65 65 64 62 62 61 60 58 58 58 56 54 54 55 53 51 50 50 48 47 48 49 50 51 51 52 52 52 51 48 46 45 44 44 43 43 43 44 45 47 48 48 47 46 46 48 51 53 54 52 51 52 51 50 50 47 42 39 38 37 35 36 38 40 38 35 33 32 31 31 33 35
48 49 52 54 54 55 56 57 57 57 58 60 61 62 63 63 62 61 61 60 58 57 57 56 54 52 53 54 53 50 49 49 48 47 47 48 49 50 51 52 52 52 51 49 47 46 45 45 44 43 44 45 46 47 49 49 48 47 47 49 51 52 52 52 53 52 50 49 49 47 46 45 44 42 42 44 45 44 40 35 33 33 32 33 35 36
47 48 51 51 51 53 53 54 55 56 57 58 59 60 61 61 61 60 60 60 58 57 57 56 53 51 52 54 53 50 49 49 49 48 48 48 49 50 51 52 53 52 51 50 48 46 46 45 45 45 45 45 46 48 49 51 50 48 47 49 52 52 51 53 55 54 50 49 47 47 49 50 48 46 44 44 44 41 39 36 35 34 33 35 36 35
48 50 52 52 52 53 54 54 56 57 58 59 60 61 62 61 60 60 59 58 57 57 57 56 54 53 54 55 54 51 50 50 50 50 49 48 49 51 52 52 52 52 51 50 47 45 45 45 46 46 46 45 46 48 49 51 51 50 49 50 52 52 52 53 54 53 49 45 46 48 50 48 43 38 34 33 34 34 35 36 36 36 36 37 37 36
51 53 54 55 55 56 56 57 58 59 61 62 63 64 64 63 62 61 58 57 57 57 57 57 55 55 57 58 56 53 52 52 53 52 51 50 51 53 53 52 52 52 52 50 47 45 45 46 47 47 45 44 46 47 49 51 52 52 52 51 52 53 54 53 53 53 49 45 47 48 46 42 33 28 29 32 35 35 36 36 37 38 39 39 38 36
55 56 58 57 58 58 58 59 60 62 63 64 65 66 65 63 62 61 59 57 58 58 57 56 56 56 58 60 58 55 54 54 54 53 53 52 52 54 54 53 54 54 52 49 46 45 46 47 47 45 43 43 45 46 47 50 52 54 54 53 52 53 55 55 53 52 50 47 48 47 44 42 38 36 38 38 38 38 38 39 41 41 42 41 40 38
57 59 59 59 59 60 61 62 63 64 65 66 66 66 64 62 61 61 60 59 59 58 56 55 55 55 57 59 58 56 56 54 54 54 53 53 53 54 54 54 55 54 51 49 46 45 47 47 46 43 41 42 44 45 46 48 51 53 55 54 53 53 55 57 56 54 52 48 45 45 46 44 42 44 46 46 44 44 43 44 46 47 47 46 45 43
60 60 60 61 61 62 62 64 65 65 65 65 65 64 62 62 61 60 60 59 59 58 56 55 55 53 53 55 57 56 55 54 54 55 54 53 53 54 55 55 55 53 51 49 47 46 47 47 43 41 40 42 43 44 44 46 48 51 53 53 53 54 54 56 57 57 56 52 47 46 46 41 39 42 46 48 49 48 46 47 49 51 50 49 47 46
62 61 61 62 63 63 64 65 65 64 63 63 62 61 60 60 59 59 58 58 57 56 55 55 54 52 50 51 54 54 52 52 54 54 54 53 53 53 54 54 54 52 50 49 47 47 47 44 41 39 39 41 41 42 42 43 45 48 51 51 52 54 54 55 55 55 56 55 51 49 48 43 43 46 48 49 49 49 47 45 45 46 47 48 47 46
61 61 62 63 63 63 65 64 62 60 60 60 59 58 57 56 55 55 55 54 54 53 53 53 52 50 48 49 51 52 50 50 52 51 51 51 51 52 53 53 52 51 50 48 46 45 44 41 38 37 38 39 38 38 35 35 41 44 47 49 51 52 53 53 53 53 52 52 49 49 49 47 46 49 50 49 48 48 46 44 43 43 43 44 45 44
61 61 61 62 62 63 63 61 58 56 56 55 55 55 54 53 52 51 50 49 49 49 51 51 50 48 46 47 50 50 47 47 48 48 48 48 49 50 50 51 50 48 48 46 43 42 41 38 36 36 36 35 35 31 26 29 39 41 42 46 48 49 50 50 50 50 48 47 48 50 50 46 44 48 50 48 47 48 48 48 48 48 47 47 48 46
60 61 61 61 61 60 58 56 53 52 52 52 52 52 51 50 49 48 46 45 44 45 49 50 47 44 43 45 49 49 47 46 46 45 46 46 46 47 47 47 47 46 45 42 41 40 38 36 35 35 35 33 30 26 24 31 39 38 39 44 46 46 47 46 45 45 45 46 48 50 47 42 42 48 51 51 52 52 52 52 52 51 49 49 50 49
60 60 60 60 58 56 54 52 51 51 51 51 50 50 49 48 47 44 43 42 41 44 48 46 43 40 40 44 47 47 46 46 45 44 45 45 44 44 44 44 44 43 41 40 39 38 38 37 37 36 36 34 32 30 32 38 41 38 37 41 42 42 41 42 42 42 44 45 46 47 41 38 44 52 56 58 60 59 57 55 54 54 53 52 52 52
60 60 59 56 53 52 51 50 51 51 51 50 49 48 46 46 45 42 41 41 41 43 45 43 40 37 39 44 46 46 46 46 45 44 44 44 42 41 42 42 42 41 40 39 39 39 40 40 39 39 38 37 37 39 41 43 42 38 37 39 40 38 37 39 40 41 44 45 45 44 37 37 48 56 58 60 62 61 59 56 54 54 55 55 54 53
59 58 56 52 49 50 49 49 50 50 49 48 47 46 44 44 44 41 41 41 41 42 42 40 38 37 40 44 45 45 45 45 45 44 43 42 40 40 40 41 41 40 40 40 41 41 41 41 39 39 38 37 37 37 38 39 40 38 37 38 39 38 38 37 38 42 46 46 45 44 40 39 48 55 55 56 59 60 58 56 55 55 54 53 52 51
57 54 51 48 47 48 48 48 48 47 46 46 45 43 42 42 41 40 40 40 39 40 39 38 38 38 41 43 43 43 44 44 44 43 42 40 39 39 40 41 42 41 41 42 42 42 41 40 39 38 37 36 35 34 33 34 36 36 37 38 39 40 41 38 38 41 45 46 46 47 47 45 47 48 46 48 51 53 52 52 53 53 51 50 49 48
52 50 48 46 46 47 46 46 46 44 43 43 42 40 39 39 38 37 37 36 37 37 37 38 39 39 39 40 41 43 43 43 43 43 41 39 39 39 40 42 43 42 42 43 42 42 41 39 38 37 37 37 37 35 33 32 33 35 36 37 39 41 41 39 38 40 43 46 46 48 51 51 50 49 48 48 49 49 49 49 50 50 49 48 46 45
48 47 46 44 44 44 44 43 43 42 41 40 39 38 38 37 35 35 35 34 35 36 37 38 38 38 38 38 39 42 42 43 43 42 40 38 38 39 40 42 43 42 42 42 41 40 39 37 37 38 38 40 40 38 36 34 32 33 34 35 37 38 35 32 35 36 39 43 45 47 50 51 52 53 53 54 53 51 51 50 50 49 48 46 45 43
45 46 45 42 41 42 41 40 41 40 40 39 38 37 36 34 33 33 33 34 35 36 37 37 36 36 36 36 37 39 40 42 42 40 38 37 38 39 40 41 42 42 41 41 40 39 38 37 38 38 39 41 42 39 38 34 30 29 30 31 33 32 29 28 32 34 35 41 45 47 48 48 51 53 54 55 54 53 52 51 50 48 46 45 43 42
44 44 43 41 40 40 39 39 39 39 39 38 37 35 34 33 32 32 33 35 35 36 36 36 35 34 34 37 39 39 38 39 40 39 37 37 38 39 40 40 41 41 40 40 40 39 38 38 39 39 40 42 43 41 39 34 29 27 27 27 28 30 32 33 34 36 38 42 45 45 46 50 53 54 54 54 54 53 51 50 48 46 44 43 41 40
43 42 41 39 38 38 38 39 38 38 37 36 35 34 33 33 33 33 34 35 36 36 37 37 36 33 34 39 42 41 39 38 38 37 36 36 38 39 39 39 39 40 40 39 38 38 38 39 39 40 40 43 44 42 39 34 28 26 24 22 23 27 32 34 33 36 43 46 46 47 49 51 53 53 52 51 50 49 48 47 45 43 42 41 40 39
41 41 41 39 37 37 38 38 37 37 36 35 35 34 34 34 33 34 35 35 37 38 38 37 36 35 38 40 40 39 39 38 37 36 35 36 38 39 39 38 38 39 38 37 37 37 38 39 40 41 42 44 44 42 39 33 28 26 22 18 19 22 25 27 27 31 39 43 44 45 47 47 47 46 45 44 43 42 42 41 40 39 38 37 37 37
41 41 41 39 37 36 36 36 36 36 36 36 35 34 34 34 34 35 35 36 37 38 38 37 36 36 38 38 36 37 38 37 36 35 36 37 38 38 38 37 37 37 37 36 36 38 39 40 41 41 42 43 43 40 37 34 30 26 22 18 19 21 22 23 25 27 31 35 37 38 39 40 40 40 39 39 39 38 38 38 37 36 35 35 35 36
41 41 40 39 37 36 35 35 35 36 36 36 34 34 35 35 35 36 36 36 37 37 37 37 36 36 37 36 36 36 36 36 35 35 36 37 37 36 36 36 36 36 36 36 37 38 39 39 40 39 39 40 41 37 34 34 34 31 26 21 19 19 21 22 23 25 27 30 33 35 37 39 39 39 40 40 40 40 39 39 38 36 35 35 35 36
40 41 40 40 38 35 34 34 34 35 36 36 35 35 37 37 37 37 37 37 37 38 37 37 35 35 37 37 36 35 35 35 34 34 35 35 35 34 34 34 34 35 36 36 37 37 38 38 38 37 37 39 38 33 30 31 33 32 28 22 17 17 20 22 23 25 27 29 30 31 33 36 37 37 38 39 39 38 37 37 36 35 33 33 34 35
40 41 41 41 40 37 34 32 33 33 34 36 37 37 38 39 38 38 38 38 38 38 37 37 35 35 37 37 36 35 35 34 33 33 34 35 34 33 33 34 35 36 35 36 36 36 35 34 33 33 34 35 33 29 28 30 30 30 28 23 19 17 17 21 25 26 27 26 25 26 28 29 30 31 32 33 32 33 33 33 34 33 32 32 33 33
44 43 42 41 41 40 37 33 33 34 33 35 37 38 39 40 39 39 39 39 39 38 37 36 36 37 38 36 35 35 35 33 33 33 35 35 34 33 34 36 36 36 35 35 34 32 30 28 26 26 28 30 30 29 30 33 31 30 29 26 25 24 24 28 29 26 25 24 23 24 27 27 25 26 28 28 28 30 32 33 34 33 33 33 34 34
47 45 43 43 43 42 39 35 35 35 33 34 37 38 40 40 40 40 41 41 40 39 37 36 35 37 37 36 35 34 34 33 33 33 35 36 34 34 37 38 37 37 36 36 35 33 31 29 26 24 27 30 32 32 34 36 34 32 30 29 29 29 28 29 28 26 26 25 23 24 27 28 27 28 29 27 27 31 34 34 35 36 36 36 36 36
45 45 44 44 44 43 40 36 34 33 33 35 38 39 40 40 40 41 42 42 42 41 39 38 36 37 37 37 35 34 33 33 33 35 36 36 36 38 40 39 38 39 38 39 40 37 32 30 27 23 26 31 34 35 37 37 35 34 32 30 29 29 28 29 28 28 28 26 26 26 27 29 30 30 30 29 30 33 35 36 36 37 37 37 37 38
45 47 46 43 44 43 41 37 34 34 34 36 37 39 40 40 40 42 43 43 43 43 42 40 39 38 37 36 35 34 34 34 34 36 38 38 39 41 41 40 40 42 43 44 42 38 33 31 29 27 28 34 38 39 39 38 36 35 34 32 30 28 28 30 32 33 32 29 28 28 27 28 30 30 31 32 34 35 35 35 35 36 38 39 39 39
48 50 48 44 43 43 41 38 35 35 36 35 36 38 40 40 41 42 43 44 44 44 43 41 40 39 38 37 35 34 34 34 35 37 39 40 42 42 42 43 45 47 49 45 40 38 37 35 34 34 35 38 42 43 41 39 37 37 37 36 33 29 28 29 31 36 38 36 34 33 31 29 30 31 32 35 38 38 36 34 33 34 37 39 40 40
51 51 48 45 43 42 41 39 36 36 36 35 36 38 40 41 42 43 44 44 45 44 43 42 41 40 38 37 35 34 34 35 36 38 40 42 44 44 45 48 51 53 51 44 38 38 40 39 38 38 39 41 45 45 43 41 39 40 41 39 36 31 28 27 28 31 35 39 40 41 38 35 34 34 36 38 40 40 39 38 36 36 36 37 37 39
51 49 46 45 45 43 42 41 39 37 36 36 37 39 41 42 44 44 45 45 45 45 43 42 41 40 39 38 36 35 35 35 37 40 43 45 46 47 49 53 56 56 52 45 41 40 42 42 41 42 42 44 47 47 46 45 43 43 44 42 38 34 30 29 30 30 30 34 38 41 42 40 38 40 41 42 42 41 42 42 41 40 39 38 38 39
52 48 45 46 46 45 44 43 41 39 38 39 39 40 41 43 44 44 45 46 46 45 44 43 42 40 40 39 38 37 36 36 39 41 45 47 48 50 54 57 59 58 53 48 45 44 45 45 46 47 48 48 49 49 48 47 46 45 44 42 41 38 35 33 35 35 34 34 34 36 38 38 38 40 43 45 45 43 44 46 47 46 44 43 44 44
52 49 46 46 47 47 47 45 44 43 42 41 41 41 42 43 43 44 45 46 46 46 45 43 42 41 40 39 39 38 37 37 40 43 47 49 50 54 58 60 61 60 56 52 49 48 48 49 50 52 53 53 53 53 51 49 47 46 44 42 42 41 39 37 39 41 41 40 37 36 36 37 37 39 41 44 45 45 45 48 50 49 47 47 49 49
52 49 47 47 48 49 48 47 47 46 44 43 43 42 42 42 42 43 44 45 45 46 45 43 42 41 40 39 39 39 38 39 41 44 48 51 53 57 62 63 62 61 59 55 52 51 51 51 52 53 55 56 57 57 56 54 52 50 47 44 43 43 42 41 43 46 47 47 45 44 42 42 41 41 42 43 46 47 48 49 50 50 49 49 51 52
50 48 47 48 50 50 49 49 49 48 46 45 45 44 42 42 42 42 42 43 45 46 45 43 42 41 40 39 39 40 39 40 42 46 50 52 55 59 65 66 64 63 61 58 55 54 54 53 53 54 56 58 59 60 59 58 56 54 52 49 46 46 47 46 47 48 49 50 50 49 48 47 46 46 46 47 47 49 50 50 51 52 52 52 53 53
47 48 49 51 52 52 52 52 51 50 49 47 47 46 44 42 42 42 42 43 44 45 45 44 42 42 41 39 39 40 40 41 43 47 51 54 56 61 67 68 66 64 63 60 57 57 57 56 55 56 57 59 61 62 62 61 59 58 56 53 50 50 52 53 52 50 50 50 50 49 49 49 49 49 50 51 51 51 52 52 53 53 52 53 53 54
46 47 50 53 54 54 54 54 54 52 51 50 49 48 46 43 42 42 41 42 44 45 46 45 44 43 41 40 40 41 42 42 44 48 52 55 58 62 68 69 68 67 65 62 59 59 59 59 58 58 59 61 62 63 64 64 63 61 59 58 56 56 57 57 56 55 54 53 52 51 50 51 50 51 52 54 55 55 55 56 56 55 55 55 55 55
44 45 49 53 54 55 56 56 56 55 53 53 51 50 48 46 43 42 42 43 44 45 46 46 45 44 43 42 42 42 43 44 45 47 52 56 59 63 69 71 70 69 68 64 61 61 61 62 62 61 60 62 64 65 65 65 65 64 63 62 61 61 60 60 60 59 58 57 56 56 55 55 53 52 53 55 56 57 58 59 59 59 58 58 58 58
43 45 49 53 55 57 58 58 57 56 55 54 53 52 51 49 46 44 44 44 45 45 45 46 46 46 46 45 44 44 44 45 45 47 51 56 60 63 69 73 72 70 70 68 65 64 64 64 65 65 63 63 65 66 67 67 66 66 65 65 65 64 64 63 62 63 62 61 60 60 60 60 59 58 58 58 59 60 61 62 63 63 63 63 63 62
43 46 50 54 57 59 60 59 58 57 56 55 54 53 52 51 48 46 45 45 46 46 46 46 47 48 48 47 46 46 46 46 47 48 51 56 60 63 68 74 75 73 72 72 69 67 66 66 67 68 68 67 67 67 68 69 69 68 66 65 66 66 66 66 66 66 67 66 66 65 64 64 63 64 64 64 64 65 65 66 67 68 68 70 70 71
44 48 52 55 57 58 59 59 59 58 57 56 56 55 54 53 51 48 47 47 47 48 48 48 48 49 49 49 49 49 49 48 49 50 50 54 59 63 67 73 77 77 75 74 74 72 70 69 68 69 70 70 70 70 70 71 71 71 70 68 67 67 67 67 68 69 70 71 71 71 70 70 69 69 69 69 69 69 70 70 71 72 72 74 75 76
47 50 54 55 55 57 58 59 59 59 57 57 57 56 55 55 54 51 49 49 50 50 50 50 50 50 51 51 51 51 50 50 50 51 51 53 57 63 66 71 76 80 79 77 77 76 75 72 71 71 72 72 72 72 72 72 73 73 73 73 72 70 69 69 70 71 71 72 73 74 74 74 75 75 76 76 76 76 76 76 76 76 77 78 78 79
47 50 52 53 53 55 56 56 57 58 58 57 57 57 57 57 56 54 52 51 51 52 52 52 52 53 53 53 53 52 52 52 52 52 53 54 56 61 66 69 74 79 81 81 80 79 79 77 75 74 74 74 75 74 74 74 74 74 74 75 75 75 74 74 73 73 73 74 74 75 76 77 78 79 79 79 80 80 80 80 80 80 80 80 80 80
45 47 48 49 49 49 50 51 52 54 57 57 57 57 57 58 57 56 55 54 53 54 55 55 55 55 56 55 55 55 54 55 55 55 54 55 56 59 64 68 72 76 80 83 83 83 82 81 80 78 77 76 77 77 77 76 75 75 75 75 76 76 77 77 77 77 77 77 77 77 78 79 80 81 81 81 82 82 83 83 83 83 83 83 84 84
40 41 42 44 45 44 44 45 46 48 52 55 57 58 58 58 58 58 58 57 56 57 57 58 58 58 59 58 58 58 58 57 57 57 57 58 58 59 62 67 71 75 78 81 84 85 85 84 84 83 82 81 79 79 79 80 79 79 78 77 77 77 78 78 79 79 80 81 81 81 82 82 83 84 84 85 86 87 88 88 88 88 89 89 89 90
34 35 36 39 40 40 39 39 40 42 45 50 55 58 59 60 59 59 60 60 59 59 60 61 61 61 62 62 62 61 61 60 60 61 62 61 61 62 63 65 69 73 77 80 82 84 86 87 87 87 86 86 85 83 82 82 82 82 83 82 82 82 81 81 81 81 81 82 82 83 84 84 85 86 86 87 88 88 89 89 90 90 91 91 91 91
31 32 33 35 37 38 38 38 39 40 41 45 51 56 59 61 61 61 61 61 62 61 61 62 63 64 64 64 64 64 63 63 63 64 65 64 64 64 65 65 67 70 74 79 82 84 86 87 89 89 89 89 89 89 88 87 86 85 85 86 86 86 86 86 86 86 86 86 86 86 86 86 87 87 88 88 89 89 90 90 91 91 92 92 93 93
27 29 31 32 34 36 37 38 40 41 42 45 48 53 57 60 62 63 63 63 64 64 64 63 64 65 66 67 67 66 65 65 65 66 66 67 67 67 67 67 68 69 71 75 79 83 86 88 89 90 91 92 92 92 92 91 91 90 89 89 89 89 89 89 89 90 90 91 91 91 91 91 91 91 91 92 92 92 93 94 94 95 96 96 97 98
22 25 27 29 31 33 35 36 38 41 43 46 49 52 55 58 61 63 65 66 66 67 68 67 67 67 67 68 69 69 68 68 68 68 68 69 70 70 70 70 70 70 71 73 76 79 83 87 89 91 92 94 94 95 95 95 95 94 94 93 93 92 92 92 92 92 93 93 94 94 95 96 96 96 97 97 97 97 98 98 99 99 100 100 101 101
Wind_Direction
255 256 256 256 256 257 258 259 259 260 260 260 261 261 262 262 262 261 261 260 259 259 258 258 258 258 258 258 256 256 257 257 257 256 255 255 255 256 256 256 256 257 257 256 255 253 252 250 248 245 241 236 231 230 231 232 233 235 233 231 231 234 239 242 246 248 250 252 256 258 260 263 264 267 274 280 284 283 274 264 259 257 262 273 279 281
256 256 256 257 257 258 259 260 261 261 260 260 260 261 261 261 261 260 260 259 258 257 256 256 256 256 256 257 256 254 255 256 255 254 254 254 254 254 255 255 255 255 255 254 253 252 251 250 248 245 241 237 233 230 231 232 232 234 235 235 234 234 235 239 243 246 249 252 254 254 254 257 261 266 271 274 277 275 265 257 257 260 265 273 278 279
258 259 259 260 260 261 262 262 263 263 262 262 261 261 261 260 260 259 259 259 258 257 256 255 254 254 255 256 256 254 253 254 253 252 252 252 253 253 252 253 253 254 254 254 252 251 250 249 247 244 241 238 234 231 230 232 232 232 232 234 238 238 236 237 241 245 247 249 253 254 253 256 263 269 273 273 271 263 254 254 258 262 266 271 275 275
261 262 263 264 264 264 265 265 265 265 265 264 263 262 262 261 261 260 259 259 259 258 257 256 254 253 254 255 256 254 252 252 251 250 250 250 252 252 251 252 253 253 253 253 252 250 249 248 247 244 241 238 235 232 230 231 232 231 230 230 233 238 239 239 240 243 245 248 252 254 256 260 265 272 270 259 255 253 253 257 260 263 266 268 270 270
263 264 265 265 266 267 267 268 268 268 267 266 265 264 263 262 261 261 260 260 259 257 257 256 254 252 253 254 255 253 251 251 250 249 248 248 250 251 251 251 252 253 252 252 251 250 249 247 246 244 242 239 237 234 230 230 231 231 231 229 228 231 236 240 243 244 243 244 248 252 255 258 259 263 258 246 247 256 260 261 264 267 268 268 269 271
264 265 266 267 268 269 270 270 269 269 268 267 265 264 263 262 262 262 260 258 257 255 255 255 253 252 253 253 253 252 250 249 249 248 248 248 249 251 251 251 252 252 252 252 251 251 250 248 247 246 244 241 239 236 233 231 231 231 230 230 229 228 229 234 239 244 243 239 242 248 252 253 252 253 254 252 256 262 265 266 268 271 271 271 272 273
267 268 269 270 271 271 271 271 270 268 267 266 265 264 264 263 262 260 259 257 255 253 252 253 252 251 252 253 252 251 250 250 249 249 248 248 249 251 251 251 252 252 253 253 252 251 250 249 248 247 245 243 240 237 234 233 232 231 231 230 229 229 228 229 230 236 242 240 239 244 249 252 255 254 252 254 262 268 270 271 271 273 274 273 273 275
269 270 271 271 271 271 272 271 270 269 268 267 266 265 263 262 260 259 257 255 254 252 250 250 251 250 251 253 252 251 250 251 251 250 249 249 250 251 251 252 252 252 253 252 251 249 248 248 248 246 244 241 238 235 233 233 232 232 232 230 229 229 229 229 228 229 235 240 239 241 245 247 250 251 249 252 261 267 269 271 272 273 273 273 275 278
270 270 270 271 271 272 272 272 272 271 270 268 266 264 263 261 260 258 257 255 253 251 249 249 249 249 249 252 253 251 250 250 250 250 249 249 249 250 251 251 251 251 251 250 249 247 247 247 245 242 239 237 235 233 232 233 234 234 233 231 230 229 228 229 230 229 230 235 238 240 242 243 245 249 252 254 258 260 261 265 268 270 272 274 277 280
270 270 270 271 273 274 274 274 274 272 269 267 265 263 262 261 260 258 256 254 252 251 249 249 249 248 248 250 252 251 249 248 249 249 248 249 249 249 250 250 250 249 248 248 247 247 246 245 241 237 235 234 232 231 231 236 239 237 234 232 230 229 229 229 230 230 229 230 233 237 238 240 243 248 253 256 257 253 251 255 259 262 267 271 274 277
269 270 271 273 275 276 275 275 272 269 267 266 264 262 261 260 258 257 256 254 252 251 251 249 248 247 246 248 251 251 248 247 247 248 247 246 247 247 247 248 248 247 246 245 244 243 242 240 236 232 231 229 228 223 219 234 244 241 236 233 230 229 230 229 229 229 229 227 228 230 232 233 238 246 250 252 251 247 245 250 255 260 264 268 272 274
270 272 274 275 276 276 274 271 268 266 265 263 262 261 260 259 258 257 255 254 251 250 250 248 247 245 245 246 248 249 248 245 244 245 245 244 244 245 245 245 245 244 242 240 238 236 235 233 229 227 225 221 217 206 199 222 237 239 236 232 229 229 230 230 230 229 228 225 225 227 228 230 236 244 247 249 251 250 248 251 255 259 264 268 271 273
272 275 276 277 276 273 270 268 266 263 262 260 259 259 259 258 257 256 254 252 248 247 247 245 244 241 241 242 244 245 245 243 241 241 242 241 241 242 242 242 241 240 237 233 231 229 228 227 223 220 217 210 201 192 194 213 226 229 231 230 228 228 230 232 230 229 228 224 223 226 230 235 241 246 249 253 256 256 255 257 258 260 262 265 267 270
275 276 277 276 272 269 267 266 264 262 261 260 259 258 257 257 255 253 250 246 242 242 242 241 238 235 236 239 240 240 242 241 240 239 240 239 238 238 238 237 236 234 231 227 226 225 224 223 220 217 213 203 195 191 195 207 216 219 221 223 223 222 224 230 229 228 228 224 222 224 227 233 243 249 252 254 255 257 259 262 263 264 265 266 268 269
276 277 275 272 268 267 266 264 263 262 261 260 258 255 254 253 252 248 244 241 238 238 239 237 234 231 232 236 237 238 240 240 239 237 237 236 235 233 233 233 232 230 227 224 223 222 222 220 218 216 211 201 196 195 198 205 210 213 215 217 217 215 216 222 225 227 228 225 222 221 222 231 243 250 254 254 254 256 261 264 266 267 268 268 269 270
276 275 271 268 266 265 264 263 263 261 259 257 255 253 250 248 247 244 241 238 236 237 237 234 231 229 230 235 236 236 238 238 238 237 234 233 231 229 229 229 229 227 225 223 223 222 221 219 216 214 208 200 197 199 202 207 210 212 213 212 212 213 214 217 220 224 226 226 224 222 223 232 242 248 251 253 253 256 261 265 265 266 267 269 269 269
273 269 266 265 264 263 263 262 261 258 256 253 251 249 246 243 241 239 237 234 233 233 233 231 229 228 230 233 236 236 236 237 237 236 233 230 228 227 227 227 227 226 225 223 222 221 219 217 214 211 206 199 198 201 204 207 210 212 212 211 210 213 216 219 223 225 227 227 225 225 228 236 243 247 249 253 257 260 264 266 266 265 266 267 267 267
268 265 263 262 262 262 261 260 258 254 251 249 246 244 241 238 235 233 230 229 229 229 230 231 229 227 228 230 235 237 235 235 235 235 232 228 227 227 227 227 227 226 225 224 223 221 218 215 212 209 206 201 198 202 205 206 209 211 211 210 211 215 219 225 230 233 236 234 230 230 235 240 244 249 253 257 261 264 266 266 265 265 265 265 266 266
263 262 262 261 260 260 259 258 255 251 247 245 243 241 239 235 229 227 226 225 226 227 229 230 229 228 227 228 234 237 234 233 234 233 231 229 228 228 227 227 227 226 226 224 222 220 217 214 210 208 207 203 200 202 204 204 205 207 208 210 211 212 217 227 231 232 240 245 242 239 241 242 246 252 257 260 263 265 265 265 264 264 265 265 266 267
260 260 261 260 258 258 257 255 252 249 246 244 242 238 236 231 224 222 223 222 223 226 228 229 229 227 227 227 230 233 233 232 232 231 231 229 229 228 227 227 227 226 225 223 221 218 215 212 209 208 208 205 203 203 202 202 201 201 202 205 205 204 207 219 225 223 231 243 245 241 242 245 250 255 259 260 262 263 264 264 264 264 265 266 267 268
258 258 259 257 256 256 255 253 250 248 245 242 239 235 231 228 222 218 219 220 222 224 225 227 226 224 227 229 229 229 232 233 231 230 229 229 229 229 227 226 226 225 224 222 219 216 213 210 208 208 207 204 203 202 201 200 198 194 191 194 196 198 205 215 221 219 224 234 239 241 244 248 252 255 257 258 260 261 262 263 264 264 265 266 268 269
256 255 255 254 253 254 254 253 250 247 243 239 236 233 229 225 221 218 218 218 221 223 224 225 224 222 226 229 228 229 231 232 231 228 228 228 228 227 225 224 224 223 223 220 217 215 212 209 209 209 207 203 200 200 201 201 197 191 188 190 193 195 202 211 217 218 223 229 235 240 243 246 249 251 254 256 257 259 260 261 263 264 265 267 268 268
254 253 252 252 251 251 251 252 249 246 242 238 234 232 228 224 220 218 218 218 221 222 223 224 223 225 229 229 228 230 230 230 230 228 226 226 226 226 224 222 221 221 220 216 213 212 209 208 209 209 208 203 199 199 202 203 202 200 201 205 205 203 206 212 218 223 228 233 237 240 244 246 248 251 253 255 257 258 259 261 263 264 266 268 268 266
250 250 251 251 249 248 249 250 249 245 241 236 233 231 228 222 219 218 217 218 221 221 222 223 222 226 231 230 228 230 230 229 229 227 225 225 225 224 222 221 219 218 216 212 210 209 207 207 207 207 206 202 198 200 205 209 211 211 212 214 215 218 227 232 236 238 238 239 242 245 248 250 251 252 254 256 258 259 261 264 265 265 267 267 266 264
246 246 247 248 248 246 246 248 248 246 241 236 231 229 227 221 218 218 217 217 220 220 220 222 221 226 232 230 227 229 230 228 228 227 225 223 222 220 219 218 216 215 213 209 207 206 205 205 205 204 201 197 196 201 210 214 216 217 220 224 226 234 245 247 246 246 242 241 244 245 249 255 257 257 258 259 261 263 264 265 265 266 266 265 264 264
241 242 242 244 246 245 243 244 245 244 242 237 231 227 226 221 217 217 217 216 219 220 220 221 221 225 229 230 228 230 230 228 226 225 222 219 217 215 214 213 212 210 208 205 203 204 203 203 202 201 196 193 196 204 215 220 219 221 225 226 223 225 234 234 231 233 233 232 233 233 238 250 259 262 263 263 265 267 267 267 267 267 267 266 264 264
238 239 240 242 244 244 242 240 239 238 238 236 231 227 225 221 218 217 216 216 217 218 219 222 224 226 228 229 229 230 229 227 225 223 218 213 210 209 208 207 206 204 202 201 197 192 188 184 186 189 188 190 197 205 217 224 223 224 225 221 215 212 217 225 229 233 233 229 228 228 227 233 243 248 253 258 261 263 265 266 268 269 269 268 267 266
239 240 241 241 242 243 242 240 239 239 239 237 231 226 224 221 218 216 216 215 216 216 217 220 225 228 229 229 230 230 230 227 224 220 215 209 205 203 203 203 200 198 196 192 182 172 168 167 170 178 184 190 196 202 213 222 223 223 222 220 220 221 222 228 235 242 240 232 228 231 230 231 233 236 244 254 258 257 260 262 264 266 267 267 267 267
239 240 241 241 241 243 242 239 238 239 241 238 232 226 223 220 218 216 215 215 216 216 216 218 221 224 226 227 228 230 230 227 222 217 212 206 201 201 201 198 194 193 188 180 172 167 167 169 171 179 193 199 200 203 212 220 221 221 224 225 228 232 234 235 239 246 246 238 231 231 231 233 237 239 246 253 251 250 255 258 258 259 260 261 262 264
236 237 239 239 239 241 241 239 237 236 237 236 233 228 224 220 218 218 216 216 217 217 217 219 220 222 224 226 226 228 229 226 221 215 209 203 200 201 198 193 190 187 180 174 173 173 173 175 175 181 198 207 206 207 213 219 220 221 227 231 232 235 239 239 240 243 244 240 235 232 230 232 236 240 245 247 246 247 252 256 255 255 254 254 256 258
234 235 237 237 237 238 239 238 236 235 235 234 232 230 226 221 219 219 217 216 218 219 219 221 222 223 224 225 225 227 228 225 219 213 207 201 201 200 194 189 185 181 176 173 176 180 180 181 183 187 198 206 208 209 213 218 221 222 225 229 233 237 241 241 241 241 241 241 239 236 234 232 233 237 241 242 243 246 252 255 255 253 254 256 257 257
235 235 236 237 236 235 236 237 235 234 235 233 230 228 226 223 220 220 218 217 218 220 221 221 223 225 224 224 225 225 226 224 218 211 205 201 200 197 191 186 182 178 175 175 178 184 186 187 191 195 200 203 205 208 212 216 221 224 225 227 230 232 232 232 234 236 240 243 244 243 241 237 232 233 237 240 243 246 251 254 253 252 256 261 262 262
237 237 236 236 235 233 233 233 233 232 232 233 231 228 226 224 222 220 219 219 220 221 221 221 223 224 224 224 224 223 223 222 216 210 204 201 200 194 188 185 181 178 177 178 181 187 189 189 192 195 198 201 204 207 212 216 220 224 226 227 227 225 222 220 222 225 230 237 241 243 244 241 236 234 236 240 243 246 250 252 252 252 256 260 262 262
237 236 234 233 233 232 230 230 230 230 230 230 230 228 227 226 224 222 220 220 221 222 222 222 223 224 224 224 224 222 221 220 216 209 204 202 199 193 188 184 182 181 181 182 185 189 190 191 192 192 194 200 205 209 213 215 218 222 226 227 225 224 223 222 222 222 224 228 233 238 241 240 237 236 238 240 243 247 250 252 253 255 258 260 260 260
235 234 232 231 232 231 230 229 228 228 228 228 228 229 228 228 227 224 223 222 221 222 223 223 223 224 224 225 225 222 219 218 215 209 205 203 199 193 189 185 184 184 185 186 189 192 192 193 195 195 197 201 205 209 212 214 216 218 221 223 224 224 225 226 228 228 227 228 231 234 237 237 237 237 239 242 244 245 248 251 253 255 258 260 261 262
233 232 229 228 230 231 230 229 228 228 227 227 228 228 228 228 228 227 226 225 224 224 224 224 224 224 225 225 226 224 220 217 214 209 205 204 200 195 191 188 187 188 189 190 193 195 195 196 198 201 203 206 209 211 213 216 217 216 217 220 224 226 227 229 232 233 232 232 234 237 239 240 239 237 237 241 243 244 245 249 253 256 257 259 262 265
230 230 227 226 227 228 228 228 228 228 228 227 228 228 228 227 228 228 228 228 227 227 227 226 225 226 226 226 227 226 222 218 214 209 205 204 202 197 194 192 191 191 192 193 196 198 199 200 203 206 209 212 213 215 216 219 219 218 217 220 224 228 229 230 233 235 235 234 236 238 240 241 240 239 238 239 243 245 247 250 253 256 257 259 261 264
227 226 224 223 224 225 226 226 227 227 227 227 228 229 228 226 226 227 228 228 228 228 228 227 226 226 227 228 228 228 226 221 216 210 206 205 203 200 197 196 195 194 194 196 198 201 202 204 206 209 212 215 217 218 219 220 221 221 220 221 224 228 229 229 231 233 234 235 235 237 239 240 240 240 240 240 241 244 246 248 250 252 254 255 257 259
223 222 222 222 222 222 223 224 225 225 226 226 227 229 229 227 224 224 226 228 228 228 228 228 226 226 227 228 229 230 228 224 219 213 208 206 205 202 200 199 199 198 198 198 201 204 206 208 209 212 214 216 219 221 222 222 223 223 223 223 225 228 229 229 230 232 234 235 235 236 237 239 239 239 240 240 241 242 244 246 247 248 249 250 252 254
220 219 221 223 223 223 223 224 224 224 225 225 226 227 229 228 224 222 223 226 227 227 228 228 228 227 227 228 229 230 230 227 223 217 211 209 207 204 202 201 202 202 201 201 204 207 209 211 213 215 217 219 220 222 224 225 226 226 226 226 226 228 230 230 231 232 234 236 238 238 238 239 239 239 238 239 240 241 243 245 246 247 248 249 250 252
218 217 219 222 223 223 223 223 224 225 225 225 226 227 228 228 225 222 221 224 226 227 227 228 229 228 227 228 229 231 231 230 227 221 215 212 210 207 205 204 204 205 205 205 206 209 212 214 216 218 220 222 223 224 225 226 227 229 229 229 229 230 232 233 233 233 235 237 239 240 241 241 241 240 239 238 239 240 242 244 246 247 248 249 251 252
216 217 219 221 222 223 223 223 224 225 225 225 226 228 230 231 228 224 221 222 225 228 228 227 228 229 229 228 229 231 231 231 229 225 219 216 213 210 208 207 206 207 208 208 209 211 213 216 218 220 222 224 225 226 227 228 229 230 231 232 233 233 234 235 236 236 236 237 238 239 240 241 242 242 241 241 241 242 243 244 246 247 249 251 252 254
213 216 220 222 223 224 225 224 224 225 225 225 226 227 229 232 232 229 225 223 224 227 229 229 229 229 229 229 229 230 230 231 231 229 224 219 216 214 212 210 209 210 210 211 212 212 215 218 220 222 224 225 227 228 229 230 231 231 232 233 234 235 236 236 237 237 238 238 239 239 240 241 242 243 243 244 244 245 246 246 247 248 250 252 254 257
213 216 220 223 224 225 226 226 225 225 226 226 227 227 228 231 233 232 229 227 226 226 227 229 230 230 230 229 229 230 230 231 232 231 228 224 220 218 217 214 213 212 213 214 214 215 216 218 221 224 225 226 228 229 230 231 232 234 234 234 235 235 236 237 238 238 239 240 241 242 242 243 244 245 246 247 248 248 249 250 252 253 254 256 257 259
217 219 222 225 226 227 229 229 227 226 226 227 228 229 229 230 232 233 232 230 230 229 228 228 230 232 232 230 229 230 230 231 232 232 231 229 225 222 220 219 217 215 215 216 217 218 218 220 222 224 226 227 229 230 231 232 233 234 236 237 237 237 237 238 238 239 240 241 243 244 245 247 248 249 250 250 251 252 253 254 256 257 258 259 261 262
222 224 226 229 231 232 233 233 231 229 228 228 229 230 231 231 232 234 233 231 231 232 232 230 229 231 233 232 230 229 229 231 232 232 232 231 230 227 224 223 221 219 218 219 219 220 221 222 223 225 227 229 230 231 232 233 233 234 236 237 239 240 240 241 241 241 242 243 244 245 246 248 249 250 251 252 252 254 255 256 258 259 260 261 263 265
228 230 231 233 236 237 237 237 236 234 232 231 231 231 232 233 233 234 235 234 231 230 232 233 232 231 232 233 232 230 229 229 231 232 232 231 231 230 228 226 225 223 222 221 222 223 223 224 225 227 229 230 232 233 234 235 235 235 236 237 239 240 241 243 243 244 245 245 246 247 248 248 249 250 251 252 254 255 256 258 259 260 261 262 264 265
231 234 235 237 240 242 242 242 241 238 235 234 233 233 234 235 235 235 236 237 236 232 231 233 234 234 234 233 234 233 231 229 229 230 232 231 231 231 230 229 228 227 225 225 225 225 226 226 227 228 230 231 232 233 235 236 237 237 238 239 240 241 242 243 244 245 246 247 247 248 249 250 251 251 252 253 254 255 257 258 259 260 262 263 265 266
233 234 234 236 238 240 241 242 241 240 237 236 235 234 234 235 236 236 237 239 240 239 236 234 235 236 237 237 236 236 235 233 231 230 232 232 232 232 231 231 230 229 229 228 228 228 228 228 229 230 231 232 233 234 236 237 238 239 240 241 242 242 243 244 245 246 247 247 248 249 250 251 252 252 253 254 255 256 257 258 260 261 262 264 265 266
237 238 238 238 238 238 238 237 237 236 235 234 234 234 234 235 236 236 237 238 240 242 242 240 238 237 238 239 239 238 238 238 236 234 233 234 234 234 233 233 232 232 231 231 231 230 230 230 231 231 232 233 234 235 236 238 239 240 241 242 243 244 245 246 247 248 249 249 250 251 251 252 253 254 255 256 257 258 259 260 261 262 263 264 266 267
236 239 241 242 242 241 240 239 237 236 234 233 233 233 234 235 235 236 237 238 238 240 243 244 243 241 240 239 240 240 239 239 239 238 236 235 235 236 235 235 234 233 233 233 233 233 233 233 233 233 234 234 235 236 237 238 239 241 242 243 244 245 246 247 248 249 250 251 252 253 254 255 255 256 257 258 259 260 261 262 263 264 265 266 267 268
Height
10604 10605 10606 10606 10607 10609 10611 10611 10613 10617 10617 10616 10616 10615 10616 10617 10620 10623 10624 10626 10629 10631 10631 10632 10636 10638 10636 10634 10637 10640 10641 10641 10644 10647 10647 10647 10647 10647 10649 10649 10649 10650 10653 10659 10662 10665 10668 10670 10673 10676 10679 10683 10687 10690 10692 10694 10698 10702 10707 10711 10712 10712 10712 10714 10713 10713 10718 10721 10721 10721 10722 10721 10721 10721 10722 10722 10721 10720 10721 10721 10721 10721 10721 10722 10722 10723
10598 10599 10597 10598 10601 10603 10604 10605 10607 10609 10609 10609 10609 10608 10608 10609 10612 10615 10615 10618 10622 10623 10623 10626 10630 10631 10629 10626 10629 10634 10635 10634 10637 10640 10640 10640 10641 10642 10642 10642 10642 10643 10646 10651 10655 10658 10661 10663 10666 10669 10673 10677 10680 10684 10686 10689 10692 10695 10699 10702 10703 10704 10707 10709 10707 10709 10714 10716 10716 10717 10718 10717 10717 10718 10720 10720 10718 10716 10716 10717 10717 10718 10718 10718 10718 10719
10591 10591 10590 10593 10596 10597 10598 10599 10600 10601 10601 10601 10601 10600 10600 10601 10604 10607 10608 10611 10614 10616 10616 10619 10623 10625 10622 10619 10621 10626 10628 10628 10630 10632 10633 10633 10634 10635 10634 10634 10635 10637 10640 10644 10648 10652 10655 10657 10660 10662 10666 10670 10674 10677 10680 10682 10685 10689 10692 10694 10694 10697 10701 10703 10703 10705 10710 10712 10712 10713 10713 10713 10714 10716 10718 10716 10712 10711 10712 10712 10714 10714 10715 10715 10715 10715
10585 10585 10585 10587 10589 10589 10591 10592 10593 10593 10593 10593 10592 10592 10592 10594 10597 10599 10602 10605 10607 10609 10609 10611 10616 10617 10614 10612 10613 10618 10621 10621 10622 10624 10625 10627 10627 10626 10627 10628 10630 10632 10634 10637 10641 10645 10648 10651 10653 10655 10659 10663 10667 10670 10673 10676 10678 10681 10684 10687 10688 10690 10693 10697 10699 10702 10706 10709 10709 10708 10709 10711 10713 10713 10714 10711 10706 10706 10708 10709 10710 10711 10711 10711 10711 10711
10579 10579 10579 10581 10581 10583 10585 10585 10585 10585 10585 10584 10584 10584 10584 10586 10589 10592 10596 10599 10600 10601 10601 10603 10607 10607 10605 10604 10606 10610 10613 10613 10614 10616 10618 10619 10619 10618 10620 10623 10624 10625 10627 10630 10635 10639 10642 10644 10646 10649 10653 10657 10660 10663 10666 10669 10672 10674 10676 10680 10683 10686 10688 10691 10694 10697 10703 10706 10705 10704 10706 10709 10710 10710 10709 10707 10703 10703 10704 10705 10706 10707 10707 10707 10707 10707
10572 10572 10572 10574 10575 10576 10577 10577 10577 10576 10576 10575 10574 10574 10576 10580 10582 10585 10588 10591 10591 10591 10593 10595 10597 10598 10596 10596 10599 10602 10604 10605 10606 10608 10610 10612 10612 10612 10614 10616 10616 10618 10621 10625 10630 10633 10636 10638 10640 10644 10648 10651 10654 10657 10660 10663 10665 10667 10669 10673 10677 10681 10683 10686 10689 10692 10697 10701 10701 10701 10704 10705 10706 10706 10704 10701 10700 10700 10701 10702 10702 10703 10703 10703 10703 10703
10565 10565 10566 10568 10568 10568 10568 10568 10567 10566 10565 10565 10565 10566 10570 10573 10574 10576 10579 10581 10581 10583 10586 10587 10587 10589 10589 10588 10592 10595 10596 10598 10600 10601 10603 10605 10605 10606 10607 10609 10609 10612 10616 10620 10624 10627 10629 10631 10635 10639 10642 10645 10647 10650 10654 10657 10659 10660 10662 10667 10672 10675 10677 10679 10683 10686 10690 10695 10698 10699 10700 10701 10701 10701 10699 10697 10695 10696 10697 10697 10698 10698 10698 10698 10698 10698
10558 10558 10560 10560 10560 10559 10559 10557 10556 10557 10557 10557 10557 10560 10563 10564 10565 10568 10570 10572 10573 10575 10579 10579 10579 10582 10584 10583 10585 10587 10590 10592 10593 10594 10595 10597 10599 10599 10600 10602 10603 10607 10610 10614 10618 10621 10622 10625 10629 10633 10636 10638 10640 10644 10647 10651 10654 10655 10657 10662 10666 10669 10671 10673 10677 10682 10686 10690 10693 10694 10695 10697 10697 10694 10694 10694 10692 10692 10693 10693 10693 10694 10694 10694 10694 10694
10550 10551 10552 10551 10551 10551 10549 10547 10548 10550 10549 10549 10550 10553 10554 10556 10557 10559 10561 10563 10566 10568 10570 10571 10573 10576 10579 10579 10578 10580 10584 10585 10585 10586 10588 10590 10591 10592 10593 10595 10597 10601 10604 10607 10612 10615 10617 10620 10624 10626 10628 10630 10634 10638 10643 10647 10650 10651 10654 10657 10661 10663 10666 10669 10672 10677 10681 10684 10688 10690 10691 10692 10691 10688 10688 10689 10689 10690 10690 10689 10689 10689 10689 10689 10689 10689
10543 10543 10543 10543 10543 10542 10540 10539 10541 10542 10541 10541 10543 10545 10546 10548 10550 10551 10554 10556 10559 10561 10562 10564 10567 10571 10574 10574 10570 10572 10576 10577 10577 10579 10580 10582 10584 10585 10586 10588 10591 10595 10598 10602 10607 10610 10612 10615 10618 10620 10621 10624 10630 10635 10643 10649 10649 10649 10651 10653 10656 10658 10661 10665 10668 10671 10676 10680 10683 10685 10685 10687 10685 10682 10682 10683 10685 10686 10686 10686 10685 10685 10685 10685 10685 10686
10535 10536 10536 10537 10536 10534 10532 10532 10534 10534 10533 10534 10536 10537 10539 10541 10543 10544 10547 10550 10553 10555 10555 10557 10561 10565 10569 10568 10563 10564 10568 10570 10571 10572 10573 10575 10577 10578 10580 10581 10584 10589 10593 10598 10602 10605 10607 10609 10611 10613 10615 10620 10626 10634 10645 10651 10648 10647 10649 10650 10651 10654 10657 10661 10663 10667 10672 10675 10678 10678 10679 10681 10679 10676 10677 10678 10679 10681 10681 10681 10681 10681 10681 10681 10681 10682
10528 10529 10529 10529 10528 10526 10525 10525 10526 10526 10526 10527 10528 10530 10533 10535 10536 10539 10542 10544 10548 10548 10546 10549 10555 10560 10564 10560 10556 10557 10560 10562 10564 10565 10566 10568 10570 10572 10574 10576 10579 10583 10588 10593 10596 10599 10601 10603 10605 10607 10609 10615 10621 10630 10641 10645 10643 10643 10645 10646 10647 10650 10654 10658 10661 10664 10667 10669 10671 10672 10674 10676 10674 10670 10670 10672 10673 10674 10675 10676 10676 10676 10676 10676 10676 10677
10522 10522 10521 10521 10520 10518 10517 10518 10519 10519 10519 10520 10522 10524 10527 10529 10530 10534 10536 10538 10540 10538 10538 10543 10549 10555 10556 10551 10548 10550 10551 10553 10557 10559 10560 10562 10565 10566 10568 10571 10574 10578 10583 10587 10590 10592 10594 10595 10597 10599 10602 10607 10613 10619 10625 10628 10630 10634 10638 10640 10643 10648 10653 10656 10659 10660 10661 10663 10666 10667 10670 10672 10668 10664 10664 10664 10665 10667 10669 10670 10671 10671 10671 10672 10672 10672
10515 10514 10513 10513 10513 10511 10511 10512 10512 10512 10513 10515 10517 10520 10523 10523 10524 10529 10530 10530 10531 10530 10531 10537 10543 10548 10547 10541 10541 10543 10543 10546 10550 10552 10554 10556 10559 10562 10564 10566 10569 10573 10577 10581 10583 10585 10586 10588 10590 10593 10597 10601 10604 10607 10609 10612 10618 10624 10630 10634 10637 10643 10648 10651 10654 10655 10653 10655 10659 10662 10666 10667 10662 10657 10656 10658 10659 10661 10663 10664 10665 10666 10666 10666 10667 10667
10507 10507 10505 10506 10506 10504 10505 10506 10505 10506 10508 10510 10512 10514 10517 10517 10518 10522 10522 10523 10524 10524 10527 10533 10537 10540 10537 10534 10535 10538 10538 10541 10544 10546 10549 10551 10554 10557 10559 10561 10564 10567 10571 10574 10576 10578 10580 10583 10587 10591 10595 10601 10605 10607 10609 10610 10614 10618 10622 10627 10631 10636 10640 10644 10647 10648 10646 10649 10653 10656 10659 10658 10652 10649 10649 10651 10654 10656 10658 10659 10659 10660 10661 10661 10662 10662
10501 10500 10498 10499 10499 10498 10499 10500 10500 10502 10503 10504 10506 10509 10511 10511 10513 10515 10517 10519 10521 10521 10524 10528 10530 10532 10530 10529 10532 10533 10534 10536 10538 10541 10543 10547 10549 10552 10554 10556 10558 10562 10565 10568 10570 10573 10576 10580 10584 10589 10594 10601 10606 10609 10612 10612 10613 10615 10617 10621 10625 10629 10633 10637 10640 10641 10642 10645 10649 10650 10651 10647 10643 10642 10644 10646 10648 10651 10653 10653 10654 10655 10656 10657 10657 10658
10494 10492 10491 10493 10493 10492 10494 10494 10495 10497 10498 10499 10501 10503 10505 10506 10508 10511 10513 10515 10516 10518 10519 10521 10523 10526 10526 10527 10528 10528 10530 10532 10534 10536 10539 10543 10545 10547 10549 10551 10553 10556 10559 10563 10566 10569 10573 10577 10582 10587 10593 10598 10602 10605 10609 10609 10610 10612 10615 10618 10621 10624 10629 10633 10636 10638 10641 10644 10646 10646 10644 10641 10638 10639 10640 10641 10643 10647 10648 10648 10649 10650 10651 10652 10653 10653
10486 10485 10485 10487 10487 10487 10489 10489 10490 10492 10492 10493 10495 10497 10499 10501 10505 10506 10508 10510 10512 10513 10513 10515 10518 10521 10523 10525 10524 10524 10527 10529 10529 10532 10535 10539 10541 10543 10545 10547 10549 10552 10555 10559 10563 10566 10571 10576 10580 10585 10589 10593 10596 10599 10602 10604 10607 10611 10614 10618 10621 10624 10629 10633 10637 10639 10640 10641 10642 10641 10638 10636 10635 10635 10636 10637 10640 10642 10643 10644 10645 10646 10647 10648 10649 10649
10480 10478 10479 10482 10483 10482 10483 10485 10485 10487 10487 10488 10490 10492 10494 10498 10501 10502 10504 10506 10507 10508 10509 10511 10514 10517 10520 10522 10521 10520 10522 10524 10526 10529 10532 10535 10537 10539 10541 10543 10546 10549 10552 10557 10560 10564 10568 10573 10577 10581 10585 10589 10591 10594 10597 10601 10605 10609 10613 10617 10621 10626 10631 10634 10637 10639 10638 10636 10636 10636 10633 10632 10631 10632 10633 10634 10636 10638 10638 10639 10640 10641 10643 10644 10644 10645
10474 10473 10474 10477 10478 10478 10478 10479 10480 10481 10483 10484 10486 10488 10491 10493 10497 10499 10500 10501 10502 10504 10506 10508 10511 10514 10517 10518 10516 10516 10518 10520 10523 10525 10528 10531 10533 10535 10537 10540 10542 10546 10549 10553 10557 10561 10565 10569 10573 10577 10580 10583 10586 10589 10594 10599 10602 10605 10609 10613 10618 10624 10628 10629 10631 10635 10635 10632 10631 10631 10630 10628 10628 10629 10630 10631 10632 10633 10633 10634 10635 10637 10638 10639 10640 10640
10468 10469 10469 10471 10473 10473 10473 10474 10475 10477 10479 10480 10482 10484 10486 10488 10492 10494 10496 10497 10498 10500 10502 10504 10507 10511 10512 10510 10510 10512 10515 10517 10519 10522 10525 10527 10529 10531 10534 10537 10539 10543 10546 10550 10554 10558 10562 10565 10569 10572 10574 10577 10581 10586 10593 10597 10599 10601 10605 10610 10614 10619 10621 10623 10626 10631 10632 10629 10627 10626 10625 10624 10624 10625 10626 10627 10628 10628 10629 10630 10630 10631 10632 10633 10634 10635
10462 10463 10464 10466 10468 10468 10468 10469 10471 10473 10475 10476 10478 10480 10481 10484 10487 10490 10491 10493 10494 10496 10498 10501 10504 10506 10505 10504 10506 10509 10511 10513 10516 10518 10521 10523 10524 10527 10530 10533 10536 10539 10543 10547 10552 10555 10558 10562 10565 10567 10569 10573 10578 10584 10591 10596 10597 10599 10603 10606 10610 10614 10616 10619 10622 10625 10626 10624 10622 10621 10620 10620 10620 10621 10622 10623 10623 10623 10624 10624 10625 10626 10626 10627 10628 10629
10457 10457 10458 10460 10463 10463 10464 10465 10467 10469 10471 10472 10474 10476 10478 10481 10484 10485 10487 10489 10491 10493 10496 10498 10501 10502 10500 10501 10504 10505 10507 10510 10512 10514 10517 10518 10520 10524 10527 10530 10533 10536 10540 10544 10548 10551 10554 10557 10561 10564 10567 10572 10578 10584 10590 10594 10596 10598 10600 10602 10606 10609 10613 10615 10617 10618 10619 10619 10618 10618 10617 10617 10617 10617 10617 10617 10618 10618 10618 10619 10619 10620 10621 10622 10623 10623
10451 10452 10453 10455 10457 10459 10460 10461 10463 10465 10467 10468 10471 10473 10474 10477 10479 10481 10483 10486 10488 10491 10493 10495 10498 10498 10497 10498 10500 10501 10504 10506 10508 10511 10513 10514 10517 10521 10524 10527 10530 10533 10537 10541 10544 10547 10550 10554 10558 10562 10567 10573 10579 10585 10588 10591 10593 10594 10596 10599 10602 10607 10610 10612 10613 10614 10614 10614 10614 10614 10613 10612 10612 10612 10612 10612 10612 10612 10613 10613 10614 10615 10616 10616 10617 10617
10446 10446 10447 10449 10451 10455 10457 10458 10459 10461 10462 10464 10467 10468 10469 10472 10475 10477 10480 10483 10485 10487 10489 10491 10494 10495 10493 10494 10497 10498 10500 10502 10504 10507 10509 10512 10515 10518 10521 10525 10528 10531 10535 10538 10541 10544 10548 10552 10556 10560 10566 10572 10579 10584 10587 10588 10590 10591 10593 10597 10601 10606 10608 10609 10608 10607 10607 10608 10610 10610 10609 10607 10606 10606 10606 10606 10606 10607 10607 10608 10608 10610 10611 10611 10611 10612
10440 10440 10442 10443 10445 10449 10453 10455 10456 10457 10459 10460 10461 10463 10465 10468 10471 10474 10476 10479 10481 10484 10486 10488 10490 10489 10488 10491 10494 10495 10497 10499 10501 10504 10506 10509 10512 10515 10518 10522 10525 10528 10532 10535 10539 10542 10546 10551 10556 10561 10566 10573 10581 10585 10586 10586 10588 10590 10592 10596 10600 10603 10604 10601 10599 10598 10599 10602 10604 10604 10603 10601 10600 10601 10601 10600 10601 10601 10602 10602 10603 10605 10606 10606 10607 10608
10433 10434 10437 10439 10440 10443 10447 10450 10451 10452 10454 10455 10456 10459 10461 10464 10467 10470 10473 10475 10477 10480 10483 10484 10485 10485 10486 10489 10491 10492 10494 10496 10498 10501 10503 10505 10508 10512 10515 10518 10521 10525 10529 10533 10537 10541 10546 10550 10555 10560 10566 10572 10579 10583 10582 10582 10584 10586 10588 10591 10595 10596 10595 10593 10592 10594 10596 10597 10598 10598 10597 10595 10595 10595 10596 10595 10596 10596 10597 10598 10599 10600 10601 10601 10602 10604
10428 10430 10432 10434 10435 10437 10441 10445 10446 10447 10449 10451 10452 10454 10457 10459 10463 10466 10469 10471 10473 10476 10478 10480 10481 10482 10484 10486 10487 10489 10491 10493 10495 10498 10500 10503 10505 10508 10511 10514 10518 10522 10526 10530 10535 10540 10544 10548 10552 10558 10564 10568 10573 10575 10576 10576 10579 10582 10584 10586 10588 10589 10589 10589 10590 10592 10593 10593 10594 10594 10593 10592 10591 10591 10592 10592 10593 10592 10592 10594 10595 10596 10597 10597 10597 10598
10424 10425 10426 10428 10430 10431 10435 10439 10441 10443 10445 10446 10448 10450 10452 10456 10459 10462 10464 10466 10468 10471 10472 10473 10475 10478 10480 10481 10484 10486 10488 10490 10492 10494 10497 10500 10503 10505 10508 10512 10516 10519 10524 10528 10532 10536 10540 10544 10547 10553 10560 10565 10567 10570 10570 10570 10574 10578 10579 10580 10582 10584 10585 10586 10587 10587 10588 10589 10590 10590 10590 10589 10589 10589 10590 10590 10590 10589 10588 10589 10590 10591 10592 10592 10592 10593
10417 10417 10419 10423 10425 10426 10429 10433 10437 10438 10439 10441 10444 10446 10449 10452 10455 10458 10460 10462 10464 10466 10467 10468 10471 10473 10475 10477 10480 10483 10484 10486 10489 10491 10495 10498 10500 10502 10506 10510 10513 10517 10522 10526 10529 10533 10536 10540 10543 10548 10554 10559 10562 10565 10566 10567 10569 10572 10573 10574 10576 10579 10581 10582 10583 10583 10584 10585 10586 10586 10586 10586 10586 10586 10587 10587 10587 10586 10585 10584 10585 10586 10587 10588 10588 10589
10409 10410 10413 10417 10420 10422 10424 10428 10432 10434 10435 10437 10440 10442 10445 10448 10451 10453 10455 10458 10460 10461 10463 10465 10468 10470 10472 10474 10477 10479 10481 10483 10486 10489 10492 10495 10497 10500 10503 10506 10510 10515 10519 10522 10526 10530 10533 10537 10540 10543 10548 10553 10557 10560 10561 10562 10564 10566 10568 10569 10571 10575 10578 10579 10579 10578 10578 10579 10580 10581 10581 10582 10582 10583 10583 10583 10583 10583 10582 10581 10581 10581 10581 10582 10584 10584
10401 10404 10409 10413 10415 10417 10419 10423 10427 10429 10431 10433 10435 10438 10441 10444 10446 10448 10451 10453 10455 10457 10460 10462 10464 10466 10468 10471 10473 10475 10478 10480 10483 10486 10489 10492 10495 10498 10501 10504 10508 10511 10515 10518 10522 10526 10529 10534 10537 10541 10545 10548 10552 10554 10556 10557 10559 10560 10562 10564 10567 10571 10573 10575 10574 10573 10572 10573 10573 10574 10576 10578 10579 10579 10579 10579 10579 10580 10580 10579 10577 10576 10576 10576 10577 10578
10396 10400 10405 10408 10410 10412 10415 10417 10421 10425 10427 10428 10430 10433 10436 10438 10441 10444 10446 10449 10451 10453 10456 10458 10460 10462 10465 10467 10469 10471 10474 10477 10480 10483 10486 10489 10492 10495 10498 10501 10505 10508 10510 10514 10517 10521 10525 10529 10533 10537 10541 10544 10547 10549 10550 10551 10553 10554 10556 10559 10563 10566 10568 10568 10568 10568 10568 10567 10567 10568 10570 10573 10575 10575 10575 10574 10575 10576 10577 10575 10574 10573 10573 10573 10573 10572
10389 10394 10399 10402 10404 10407 10410 10413 10416 10420 10422 10423 10425 10428 10431 10434 10436 10440 10442 10445 10447 10450 10452 10454 10456 10459 10461 10463 10465 10468 10470 10473 10476 10480 10483 10486 10489 10492 10496 10499 10502 10504 10507 10509 10512 10516 10520 10523 10527 10531 10534 10538 10541 10542 10543 10545 10547 10549 10551 10554 10558 10560 10562 10562 10562 10563 10563 10562 10563 10564 10565 10567 10569 10570 10570 10570 10570 10572 10572 10570 10569 10569 10569 10569 10568 10567
10383 10388 10393 10396 10399 10402 10405 10408 10411 10414 10416 10418 10421 10423 10426 10429 10432 10436 10438 10440 10443 10446 10448 10450 10453 10456 10458 10460 10462 10464 10466 10469 10473 10476 10480 10483 10486 10489 10493 10496 10499 10501 10503 10506 10508 10511 10515 10518 10522 10525 10527 10530 10532 10534 10536 10539 10541 10544 10547 10550 10552 10555 10556 10556 10556 10557 10557 10557 10559 10560 10560 10561 10563 10564 10565 10565 10566 10566 10566 10564 10563 10564 10565 10564 10562 10562
10377 10382 10388 10391 10394 10396 10400 10404 10405 10407 10410 10413 10416 10419 10422 10425 10428 10432 10435 10438 10440 10442 10444 10447 10450 10453 10454 10456 10458 10460 10463 10465 10468 10472 10476 10479 10482 10486 10489 10492 10495 10497 10500 10502 10504 10507 10510 10513 10517 10520 10522 10523 10525 10527 10530 10533 10535 10538 10541 10544 10547 10549 10550 10551 10550 10550 10551 10552 10554 10555 10555 10556 10558 10559 10559 10559 10559 10560 10559 10559 10558 10559 10560 10559 10557 10557
10372 10378 10382 10385 10388 10391 10394 10397 10399 10402 10405 10408 10411 10414 10417 10421 10424 10427 10431 10434 10436 10439 10441 10444 10448 10449 10451 10453 10455 10456 10459 10461 10464 10468 10472 10475 10478 10482 10485 10487 10490 10493 10496 10498 10500 10503 10506 10508 10511 10514 10516 10518 10520 10522 10525 10527 10530 10533 10536 10538 10540 10542 10543 10543 10543 10543 10544 10546 10547 10549 10550 10551 10552 10553 10554 10554 10554 10554 10555 10555 10554 10554 10554 10554 10553 10552
10366 10371 10375 10377 10380 10384 10387 10390 10393 10396 10399 10402 10405 10408 10412 10416 10420 10423 10426 10429 10432 10435 10438 10441 10444 10445 10447 10449 10451 10452 10455 10458 10460 10463 10466 10470 10474 10477 10480 10483 10486 10489 10491 10493 10495 10498 10501 10503 10505 10507 10509 10512 10514 10516 10519 10522 10525 10528 10530 10533 10534 10534 10534 10535 10536 10537 10538 10539 10541 10543 10544 10544 10546 10547 10548 10549 10549 10549 10549 10549 10549 10548 10549 10548 10548 10547
10360 10365 10368 10369 10372 10376 10380 10383 10386 10390 10393 10397 10400 10403 10407 10411 10414 10418 10421 10424 10427 10430 10432 10435 10438 10441 10443 10445 10447 10448 10450 10453 10455 10458 10462 10466 10469 10472 10475 10479 10482 10484 10486 10488 10490 10493 10495 10497 10499 10501 10503 10505 10508 10510 10513 10516 10519 10521 10524 10526 10527 10527 10527 10529 10531 10532 10532 10533 10535 10537 10537 10538 10539 10541 10542 10542 10543 10543 10542 10542 10542 10543 10543 10542 10541 10542
10355 10360 10363 10364 10367 10371 10374 10377 10380 10384 10388 10391 10394 10398 10401 10405 10409 10413 10416 10418 10421 10424 10427 10429 10433 10436 10438 10440 10441 10443 10445 10447 10451 10454 10458 10461 10464 10467 10470 10473 10476 10479 10481 10483 10485 10487 10489 10491 10493 10495 10497 10499 10501 10504 10507 10510 10512 10514 10517 10519 10520 10520 10521 10523 10525 10526 10527 10528 10529 10530 10531 10532 10533 10534 10535 10536 10536 10536 10536 10535 10536 10536 10536 10535 10535 10536
10351 10355 10358 10359 10362 10364 10367 10370 10374 10378 10382 10386 10389 10393 10395 10399 10403 10407 10410 10413 10415 10418 10421 10424 10427 10430 10432 10434 10437 10439 10440 10442 10446 10450 10453 10455 10458 10462 10465 10468 10471 10473 10475 10477 10479 10481 10483 10485 10487 10489 10491 10492 10494 10498 10500 10502 10505 10507 10510 10512 10514 10515 10516 10517 10519 10520 10521 10522 10523 10524 10524 10525 10526 10527 10528 10529 10529 10529 10529 10529 10529 10529 10530 10529 10529 10529
10347 10350 10351 10352 10354 10357 10360 10365 10369 10373 10377 10381 10384 10388 10391 10394 10398 10401 10405 10408 10410 10412 10415 10418 10421 10423 10426 10429 10431 10433 10435 10437 10439 10443 10446 10450 10453 10456 10460 10462 10464 10466 10469 10470 10472 10474 10477 10479 10481 10482 10484 10485 10488 10491 10493 10495 10497 10500 10502 10504 10506 10507 10509 10510 10511 10513 10514 10514 10515 10516 10517 10518 10519 10520 10520 10521 10521 10521 10522 10522 10522 10522 10523 10522 10521 10521
10341 10344 10345 10346 10349 10352 10356 10360 10364 10368 10372 10376 10379 10383 10386 10389 10392 10396 10400 10402 10405 10407 10409 10412 10415 10417 10420 10422 10424 10426 10429 10431 10433 10436 10440 10444 10447 10450 10453 10455 10457 10460 10462 10463 10465 10467 10469 10472 10474 10475 10478 10479 10481 10484 10486 10488 10490 10492 10494 10496 10498 10499 10501 10502 10503 10504 10505 10505 10506 10508 10509 10510 10511 10511 10512 10512 10513 10514 10514 10514 10515 10515 10514 10514 10513 10513
10335 10337 10339 10341 10345 10348 10351 10355 10359 10363 10367 10371 10374 10378 10381 10384 10386 10390 10394 10397 10399 10401 10403 10406 10408 10410 10412 10415 10418 10420 10423 10425 10428 10431 10434 10437 10440 10442 10445 10447 10450 10453 10455 10457 10458 10460 10462 10464 10466 10468 10470 10472 10474 10476 10479 10481 10483 10484 10486 10488 10490 10491 10493 10493 10494 10495 10496 10497 10498 10499 10500 10501 10502 10502 10503 10503 10504 10505 10505 10506 10506 10506 10506 10506 10505 10505
10330 10332 10334 10337 10340 10343 10346 10350 10354 10358 10362 10366 10369 10373 10376 10378 10381 10384 10388 10392 10394 10395 10397 10400 10402 10403 10405 10409 10412 10414 10417 10419 10421 10424 10427 10430 10433 10435 10437 10440 10443 10445 10447 10449 10451 10453 10455 10457 10459 10460 10462 10465 10467 10469 10471 10474 10476 10477 10478 10479 10481 10483 10484 10485 10486 10487 10488 10489 10490 10491 10491 10492 10493 10494 10494 10495 10495 10496 10496 10496 10497 10497 10497 10496 10496 10496
10326 10329 10332 10334 10337 10340 10343 10346 10350 10354 10358 10361 10365 10367 10370 10372 10375 10378 10381 10385 10388 10389 10391 10393 10395 10397 10398 10401 10404 10407 10410 10412 10414 10417 10420 10422 10425 10428 10430 10432 10434 10437 10440 10442 10444 10446 10448 10450 10451 10453 10455 10457 10459 10461 10463 10465 10467 10469 10470 10472 10473 10474 10476 10477 10478 10480 10481 10482 10482 10483 10483 10484 10484 10485 10485 10486 10486 10486 10487 10487 10487 10487 10487 10487 10486 10486
10323 10326 10330 10332 10334 10337 10340 10343 10347 10351 10354 10357 10360 10362 10363 10366 10369 10371 10374 10376 10380 10382 10384 10386 10388 10390 10391 10393 10395 10398 10401 10404 10407 10409 10411 10413 10416 10418 10421 10423 10425 10428 10431 10433 10436 10438 10440 10442 10444 10445 10446 10448 10450 10452 10454 10456 10458 10460 10462 10463 10464 10466 10467 10468 10469 10471 10472 10473 10474 10474 10475 10475 10475 10475 10476 10477 10477 10477 10477 10477 10477 10477 10477 10477 10476 10476
10322 10325 10328 10330 10331 10334 10337 10340 10343 10347 10350 10352 10354 10356 10358 10360 10363 10365 10367 10369 10371 10374 10377 10378 10380 10381 10383 10385 10387 10390 10392 10396 10398 10399 10401 10403 10406 10408 10410 10413 10416 10418 10421 10424 10426 10428 10431 10433 10434 10436 10437 10439 10440 10442 10444 10446 10448 10450 10452 10453 10455 10456 10457 10458 10460 10461 10462 10463 10464 10465 10465 10466 10466 10466 10467 10467 10468 10467 10467 10467 10467 10467 10467 10466 10466 10466
10320 10322 10325 10327 10328 10330 10333 10335 10338 10341 10344 10347 10349 10350 10352 10354 10356 10358 10360 10362 10363 10365 10368 10371 10372 10374 10375 10377 10380 10382 10385 10387 10390 10391 10393 10395 10397 10399 10402 10404 10407 10410 10412 10414 10416 10418 10420 10422 10424 10426 10428 10429 10431 10433 10435 10436 10438 10440 10442 10443 10444 10446 10448 10449 10450 10451 10452 10453 10454 10455 10455 10456 10456 10456 10457 10457 10458 10458 10458 10457 10457 10457 10457 10456 10456 10455
10318 10319 10321 10323 10325 10326 10328 10330 10333 10335 10337 10340 10341 10343 10344 10346 10349 10351 10353 10355 10357 10358 10359 10361 10364 10366 10367 10369 10372 10374 10377 10379 10381 10384 10386 10387 10389 10391 10393 10395 10398 10401 10402 10404 10406 10408 10410 10412 10414 10415 10417 10419 10421 10423 10424 10426 10428 10429 10431 10433 10434 10436 10437 10439 10440 10440 10441 10442 10443 10444 10444 10445 10445 10446 10446 10447 10447 10448 10448 10447 10447 10446 10446 10446 10445 10444
10315 10317 10318 10319 10321 10322 10324 10326 10328 10329 10331 10333 10334 10335 10337 10339 10341 10344 10345 10347 10349 10350 10351 10352 10353 10355 10358 10360 10362 10365 10367 10370 10372 10374 10377 10379 10380 10381 10383 10385 10388 10391 10393 10395 10397 10399 10400 10402 10404 10406 10408 10409 10411 10412 10414 10416 10418 10419 10421 10423 10424 10426 10427 10428 10429 10430 10431 10432 10433 10433 10434 10434 10435 10436 10436 10436 10437 10437 10437 10436 10435 10435 10434 10434 10433 10432